TimeEDT,TemperatureF,Dew PointF,Humidity,Sea Level PressureIn,VisibilityMPH,Wind Direction,Wind SpeedMPH,Gust SpeedMPH,PrecipitationIn,Events,Conditions,WindDirDegrees,DateUTC
12:15 AM,80.6,75.2,84,30.04,7.0,WSW,6.9,-,N/A,,Clear,250,2013-08-24 04:15:00
12:35 AM,80.6,75.2,84,30.04,10.0,WSW,4.6,-,N/A,,Clear,250,2013-08-24 04:35:00
12:55 AM,78.8,75.2,89,30.04,7.0,West,5.8,-,N/A,,Clear,260,2013-08-24 04:55:00
1:15 AM,78.8,73.4,83,30.04,7.0,West,6.9,-,N/A,,Clear,270,2013-08-24 05:15:00
1:35 AM,78.8,75.2,89,30.03,10.0,WNW,5.8,-,N/A,,Clear,300,2013-08-24 05:35:00
1:55 AM,78.8,73.4,83,30.03,10.0,West,8.1,-,N/A,,Clear,280,2013-08-24 05:55:00
2:15 AM,78.8,73.4,83,30.03,10.0,West,6.9,-,N/A,,Clear,270,2013-08-24 06:15:00
2:35 AM,78.8,73.4,83,30.03,7.0,West,4.6,-,N/A,,Clear,270,2013-08-24 06:35:00
2:55 AM,78.8,73.4,83,30.03,7.0,WNW,5.8,-,N/A,,Clear,290,2013-08-24 06:55:00
3:15 AM,77.0,73.4,89,30.03,10.0,WSW,4.6,-,N/A,,Clear,250,2013-08-24 07:15:00
3:35 AM,77.0,73.4,89,30.03,7.0,WSW,3.5,-,N/A,,Clear,240,2013-08-24 07:35:00
3:55 AM,77.0,73.4,89,30.04,10.0,SW,3.5,-,N/A,,Clear,230,2013-08-24 07:55:00
4:15 AM,77.0,73.4,89,30.04,7.0,Calm,Calm,-,N/A,,Clear,0,2013-08-24 08:15:00
4:35 AM,75.2,73.4,94,30.05,10.0,SW,3.5,-,N/A,,Clear,230,2013-08-24 08:35:00
4:55 AM,75.2,73.4,94,30.05,7.0,Calm,Calm,-,N/A,,Clear,0,2013-08-24 08:55:00
5:15 AM,75.2,73.4,94,30.05,7.0,West,3.5,-,N/A,,Clear,260,2013-08-24 09:15:00
5:35 AM,75.2,75.2,100,30.06,7.0,WNW,4.6,-,N/A,,Clear,290,2013-08-24 09:35:00
5:55 AM,77.0,73.4,89,30.06,7.0,WNW,5.8,-,N/A,,Clear,300,2013-08-24 09:55:00
6:15 AM,75.2,73.4,94,30.06,7.0,WNW,5.8,-,N/A,,Clear,300,2013-08-24 10:15:00
6:35 AM,75.2,73.4,94,30.07,7.0,WSW,3.5,-,N/A,,Clear,240,2013-08-24 10:35:00
6:55 AM,73.4,73.4,100,30.07,7.0,West,3.5,-,N/A,,Clear,270,2013-08-24 10:55:00
7:15 AM,75.2,73.4,94,30.08,10.0,West,3.5,-,N/A,,Scattered Clouds,280,2013-08-24 11:15:00
7:35 AM,75.2,73.4,94,30.08,7.0,WNW,4.6,-,N/A,,Scattered Clouds,290,2013-08-24 11:35:00
7:55 AM,77.0,73.4,89,30.09,10.0,West,5.8,-,N/A,,Clear,280,2013-08-24 11:55:00
8:15 AM,77.0,73.4,89,30.10,7.0,NW,5.8,-,N/A,,Scattered Clouds,320,2013-08-24 12:15:00
8:35 AM,77.0,73.4,89,30.11,5.0,NW,8.1,-,N/A,,Mostly Cloudy,320,2013-08-24 12:35:00
8:55 AM,77.0,71.6,83,30.11,7.0,NNW,8.1,-,N/A,,Scattered Clouds,340,2013-08-24 12:55:00
9:15 AM,78.8,71.6,78,30.12,7.0,North,6.9,-,N/A,,Clear,360,2013-08-24 13:15:00
9:35 AM,78.8,73.4,83,30.12,7.0,NNE,10.4,-,N/A,,Scattered Clouds,20,2013-08-24 13:35:00
9:55 AM,78.8,73.4,83,30.12,7.0,NNE,13.8,-,N/A,,Mostly Cloudy,30,2013-08-24 13:55:00
10:15 AM,78.8,73.4,83,30.13,5.0,NNE,11.5,-,N/A,,Haze,30,2013-08-24 14:15:00
10:35 AM,78.8,73.4,83,30.14,7.0,NNE,11.5,-,N/A,,Overcast,30,2013-08-24 14:35:00
10:55 AM,77.0,73.4,89,30.15,7.0,NE,12.7,-,N/A,,Overcast,40,2013-08-24 14:55:00
11:15 AM,78.8,73.4,83,30.16,5.0,NE,13.8,17.3,N/A,,Haze,40,2013-08-24 15:15:00
11:35 AM,78.8,71.6,78,30.16,7.0,ENE,9.2,-,N/A,,Overcast,70,2013-08-24 15:35:00
11:55 AM,78.8,71.6,78,30.16,7.0,NE,11.5,-,N/A,,Overcast,50,2013-08-24 15:55:00
12:15 PM,78.8,71.6,78,30.16,7.0,NE,10.4,-,N/A,,Overcast,40,2013-08-24 16:15:00
12:35 PM,78.8,71.6,78,30.16,7.0,ENE,9.2,-,N/A,,Overcast,60,2013-08-24 16:35:00
12:55 PM,78.8,71.6,78,30.16,5.0,ENE,9.2,-,N/A,,Haze,60,2013-08-24 16:55:00
1:15 PM,78.8,71.6,78,30.16,7.0,NE,10.4,-,N/A,,Overcast,40,2013-08-24 17:15:00
1:35 PM,78.8,71.6,78,30.16,7.0,ENE,6.9,-,N/A,,Overcast,70,2013-08-24 17:35:00
1:55 PM,78.8,71.6,78,30.16,7.0,NNE,11.5,-,N/A,,Overcast,30,2013-08-24 17:55:00
2:15 PM,78.8,71.6,78,30.16,7.0,NNE,9.2,-,N/A,,Overcast,20,2013-08-24 18:15:00
2:35 PM,78.8,71.6,78,30.16,7.0,NE,9.2,-,N/A,,Overcast,50,2013-08-24 18:35:00
2:55 PM,78.8,71.6,78,30.16,5.0,ENE,6.9,-,N/A,,Haze,60,2013-08-24 18:55:00
3:15 PM,78.8,71.6,78,30.16,7.0,NE,5.8,-,N/A,,Overcast,40,2013-08-24 19:15:00
3:35 PM,78.8,71.6,78,30.15,5.0,NE,6.9,-,N/A,,Haze,50,2013-08-24 19:35:00
3:55 PM,78.8,71.6,78,30.14,7.0,NNE,8.1,-,N/A,,Overcast,20,2013-08-24 19:55:00
4:15 PM,80.6,71.6,74,30.14,7.0,NE,6.9,-,N/A,,Overcast,40,2013-08-24 20:15:00
4:35 PM,80.6,71.6,74,30.14,7.0,NNE,5.8,-,N/A,,Overcast,20,2013-08-24 20:35:00
4:55 PM,80.6,71.6,74,30.14,7.0,ENE,3.5,-,N/A,,Overcast,60,2013-08-24 20:55:00
5:15 PM,80.6,71.6,74,30.14,7.0,NE,4.6,-,N/A,,Mostly Cloudy,50,2013-08-24 21:15:00
5:35 PM,82.4,71.6,70,30.14,7.0,NNE,4.6,-,N/A,,Scattered Clouds,30,2013-08-24 21:35:00
5:55 PM,80.6,71.6,74,30.14,7.0,North,5.8,-,N/A,,Mostly Cloudy,10,2013-08-24 21:55:00
6:15 PM,80.6,71.6,74,30.13,7.0,North,9.2,-,N/A,,Scattered Clouds,350,2013-08-24 22:15:00
6:35 PM,80.6,73.4,79,30.13,7.0,North,5.8,-,N/A,,Clear,360,2013-08-24 22:35:00
6:55 PM,78.8,73.4,83,30.14,7.0,ESE,3.5,-,N/A,,Mostly Cloudy,110,2013-08-24 22:55:00
7:15 PM,78.8,73.4,83,30.14,7.0,Calm,Calm,-,N/A,,Overcast,0,2013-08-24 23:15:00
7:35 PM,78.8,71.6,78,30.14,10.0,East,3.5,-,N/A,,Overcast,100,2013-08-24 23:35:00
7:55 PM,78.8,71.6,78,30.15,10.0,Calm,Calm,-,N/A,,Overcast,0,2013-08-24 23:55:00
8:15 PM,78.8,71.6,78,30.15,7.0,NE,4.6,-,N/A,,Overcast,50,2013-08-25 00:15:00
8:35 PM,78.8,71.6,78,30.16,7.0,East,4.6,-,N/A,,Overcast,90,2013-08-25 00:35:00
8:55 PM,78.8,71.6,78,30.17,10.0,ENE,10.4,-,N/A,,Overcast,70,2013-08-25 00:55:00
9:15 PM,78.8,71.6,78,30.17,10.0,NE,12.7,-,N/A,,Overcast,50,2013-08-25 01:15:00
9:35 PM,77.0,69.8,78,30.17,7.0,NE,10.4,16.1,N/A,,Scattered Clouds,50,2013-08-25 01:35:00
9:55 PM,77.0,71.6,83,30.18,7.0,NE,10.4,-,N/A,,Clear,50,2013-08-25 01:55:00
10:15 PM,77.0,71.6,83,30.19,7.0,NE,11.5,-,N/A,,Clear,50,2013-08-25 02:15:00
10:35 PM,77.0,71.6,83,30.19,7.0,NE,10.4,-,N/A,,Clear,40,2013-08-25 02:35:00
10:55 PM,77.0,71.6,83,30.19,7.0,NE,11.5,-,N/A,,Scattered Clouds,50,2013-08-25 02:55:00
11:15 PM,77.0,71.6,83,30.20,7.0,NE,10.4,-,N/A,,Clear,50,2013-08-25 03:15:00
11:35 PM,77.0,71.6,83,30.20,7.0,NE,9.2,-,N/A,,Clear,50,2013-08-25 03:35:00
11:55 PM,77.0,71.6,83,30.20,7.0,NE,10.4,-,N/A,,Clear,50,2013-08-25 03:55:00